Weather History for Alma, GA

Change the Weather History Date:

Sunday, February 2, 2014

  Actual Average Record
Temperature  
Mean Temperature 63 °F 52 °F  
Max Temperature 76 °F 63 °F 83 °F (1989)
Min Temperature 50 °F 41 °F 19 °F (1951)
Degree Days  
Heating Degree Days 2 13  
Month to date heating degree days 14 26  
Since 1 July heating degree days 1178 1115  
Cooling Degree Days 0 0  
Month to date cooling degree days 0 0  
Year to date cooling degree days 1 5  
Growing Degree Days 12 (Base 50)    
Moisture  
Dew Point 53 °F    
Average Humidity 73    
Maximum Humidity 96    
Minimum Humidity 50    
Precipitation  
Precipitation 0.00 in 0.13 in 2.34 in (2006)
Month to date precipitation 0.12 0.27  
Year to date precipitation 1.73 4.53  
Snow  
Snow 0.00 in 0.00 in 0.00 in ()
Month to date snowfall 0.0 0.0  
Since 1 July snowfall T 0.1  
Snow Depth 0.00 in    
Sea Level Pressure  
Sea Level Pressure 30.13 in    
Wind  
Wind Speed 4 mph (SSE)    
Max Wind Speed 12 mph    
Max Gust Speed 13 mph    
Visibility 5 miles    
Events Fog    
T = Trace of Precipitation, MM = Missing Value Source: NWS Daily Summary

Daily Weather History Graph

Daily Weather History Graph

Search for Another Location

Airport:

Trip Planner

Search our weather history database for the weather conditions in past years. The results will help you decide how hot, cold, wet, or windy it might be!

Date:

Astronomy

Feb. 02, 2014 Rise Set
Actual Time 7:22 AM EST 6:05 PM EST
Civil Twilight 6:56 AM EST 6:31 PM EST
Nautical Twilight 6:27 AM EST 7:00 PM EST
Astronomical Twilight 5:59 AM EST 7:28 PM EST
Moon 9:02 AM EST (2/2) 9:31 PM EST (2/2)
Length of Visible Light 11h 34m
Length of Day
10h 43m
Waxing Crescent, 11% of the Moon is Illuminated
Feb 2
Waxing Crescent
Feb 6
First Quarter
Feb 14
Full
Feb 22
Last Quarter
Mar 1
New

Hourly Weather History & Observations

Time (EST) Temp. Dew Point Humidity Pressure Visibility Wind Dir Wind Speed Gust Speed Precip Events Conditions
12:10 AM 54.0 °F 51.1 °F 90% 30.17 in 4.0 mi Calm Calm - N/A   Overcast
12:53 AM 54.0 °F 51.1 °F 90% 30.16 in 4.0 mi Calm Calm - N/A   Overcast
1:24 AM 52.0 °F 50.0 °F 93% 30.15 in 1.8 mi East 3.5 mph - N/A   Overcast
1:38 AM 52.0 °F 50.0 °F 93% 30.16 in 0.5 mi ENE 3.5 mph - N/A Fog Fog
1:53 AM 52.0 °F 50.0 °F 93% 30.15 in 0.2 mi Calm Calm - N/A Fog Fog
2:53 AM 51.1 °F 48.9 °F 92% 30.15 in 0.2 mi Calm Calm - N/A Fog Fog
3:53 AM 51.1 °F 48.9 °F 92% 30.14 in 0.2 mi Calm Calm - N/A Fog Fog
4:53 AM 50.0 °F 48.0 °F 93% 30.14 in 0.2 mi Calm Calm - N/A Fog Fog
5:53 AM 50.0 °F 48.0 °F 93% 30.15 in 0.2 mi Calm Calm - N/A Fog Fog
6:53 AM 50.0 °F 48.0 °F 93% 30.17 in 0.2 mi NW 4.6 mph - N/A Fog Fog
7:53 AM 50.0 °F 48.0 °F 93% 30.17 in 0.2 mi Calm Calm - N/A Fog Fog
8:20 AM 50.0 °F 46.9 °F 89% 30.17 in 0.5 mi Calm Calm - N/A Fog Fog
8:34 AM 50.0 °F 48.0 °F 93% 30.18 in 0.2 mi Calm Calm - N/A Fog Fog
8:53 AM 51.1 °F 48.9 °F 92% 30.18 in 0.2 mi Calm Calm - N/A Fog Fog
9:53 AM 53.1 °F 51.1 °F 93% 30.19 in 0.2 mi Calm Calm - N/A Fog Fog
10:12 AM 53.1 °F 52.0 °F 96% 30.19 in 0.5 mi Calm Calm - N/A Fog Fog
10:29 AM 54.0 °F 52.0 °F 93% 30.20 in 2.0 mi South 3.5 mph - N/A   Overcast
10:48 AM 55.4 °F 53.6 °F 94% 30.20 in 6.0 mi South 3.5 mph - N/A   Overcast
10:53 AM 55.0 °F 53.1 °F 93% 30.19 in 10.0 mi SSE 3.5 mph - N/A   Overcast
11:12 AM 57.0 °F 53.1 °F 87% 30.18 in 10.0 mi Calm Calm - N/A   Mostly Cloudy
11:53 AM 63.0 °F 54.0 °F 72% 30.17 in 10.0 mi South 5.8 mph - N/A   Mostly Cloudy
12:53 PM 68.0 °F 55.0 °F 63% 30.14 in 10.0 mi South 5.8 mph - N/A   Partly Cloudy
1:53 PM 73.9 °F 55.9 °F 53% 30.10 in 10.0 mi SSE 5.8 mph - N/A   Scattered Clouds
2:53 PM 75.0 °F 55.0 °F 50% 30.08 in 10.0 mi South 5.8 mph - N/A   Clear
3:53 PM 75.0 °F 55.9 °F 51% 30.06 in 10.0 mi SSE 8.1 mph - N/A   Clear
4:53 PM 73.9 °F 55.9 °F 53% 30.06 in 10.0 mi SSE 8.1 mph - N/A   Clear
5:53 PM 69.1 °F 57.0 °F 65% 30.06 in 10.0 mi SSE 4.6 mph - N/A   Partly Cloudy
6:53 PM 64.9 °F 57.0 °F 75% 30.07 in 10.0 mi SSE 3.5 mph - N/A   Clear
7:53 PM 64.0 °F 57.0 °F 78% 30.07 in 10.0 mi SSE 3.5 mph - N/A   Partly Cloudy
8:39 PM 63.0 °F 57.0 °F 81% 30.07 in 10.0 mi SSE 3.5 mph - N/A   Mostly Cloudy
8:48 PM 62.6 °F 57.2 °F 82% 30.07 in 10.0 mi SSE 3.5 mph - N/A   Scattered Clouds
8:53 PM 62.1 °F 57.0 °F 84% 30.07 in 10.0 mi SSE 3.5 mph - N/A   Scattered Clouds
9:53 PM 63.0 °F 57.9 °F 84% 30.07 in 10.0 mi SE 5.8 mph - N/A   Overcast
10:53 PM 64.0 °F 60.1 °F 87% 30.07 in 9.0 mi SSE 6.9 mph - N/A   Partly Cloudy
11:53 PM 64.0 °F 61.0 °F 90% 30.06 in 6.0 mi South 6.9 mph - N/A   Mostly Cloudy